DW3478 Weather Reports


Display with metric or nautical units.
time (UTC)temp
F
wind
direction
speed
MPH
gust
MPH
rain 1hr
in
rain 24hr
in
rain mn
in
humidity
%
barometer
mb
20260509090805 58 320 2.0 7.0 0.00 0.15 0.05 85 1008.5
20260509085306 58 321 2.0 12.0 0.00 0.15 0.05 85 1008.4
20260509083305 58 339 3.0 7.0 0.00 0.15 0.05 88 1008.2
20260509082307 58 310 2.0 5.0 0.00 0.15 0.05 89 1008.2
20260509081806 57 306 3.0 9.0 0.00 0.15 0.05 91 1008.3
20260509074306 57 341 3.0 12.0 0.00 0.18 0.05 92 1007.5
20260509073805 57 327 2.0 5.0 0.00 0.18 0.05 91 1007.7
20260509073305 57 334 2.0 7.0 0.00 0.18 0.05 91 1007.4
20260509065805 56 336 3.0 8.0 0.00 0.18 0.05 92 1007.2
20260509065306 56 311 2.0 6.0 0.00 0.18 0.05 92 1007.1
20260509064806 56 330 3.0 9.0 0.00 0.18 0.05 92 1007.0
20260509064305 56 326 2.0 8.0 0.00 0.18 0.05 92 1007.0
20260509062306 56 303 3.0 7.0 0.00 0.18 0.05 92 1006.7
20260509061806 56 309 3.0 10.0 0.00 0.18 0.05 92 1006.7
20260509061305 56 317 2.0 9.0 0.00 0.18 0.05 92 1006.8
20260509060805 56 287 2.0 5.0 0.00 0.18 0.05 92 1006.8
20260509060305 56 318 3.0 7.0 0.00 0.18 0.05 92 1006.7
20260509054305 56 310 3.0 12.0 0.00 0.18 0.05 92 1006.3
20260509045805 56 343 3.0 9.0 0.00 0.18 0.05 93 1006.1
20260509045306 56 313 3.0 13.0 0.00 0.18 0.05 93 1006.3
20260509044305 56 307 3.0 12.0 0.00 0.18 0.05 93 1006.3
20260509042805 56 326 3.0 12.0 0.00 0.20 0.05 93 1006.2
20260509042307 56 309 2.0 10.0 0.00 0.20 0.05 93 1006.1
20260509041305 56 310 3.0 7.0 0.00 0.20 0.05 93 1006.1
20260509040805 56 321 3.0 6.0 0.00 0.20 0.05 93 1006.2
20260509040305 56 311 4.0 12.0 0.01 0.20 0.05 92 1006.0
20260509035805 56 334 2.0 6.0 0.01 0.20 0.05 93 1006.0
20260509034805 56 325 3.0 12.0 0.01 0.20 0.05 93 1006.3
20260509032805 56 306 3.0 7.0 0.01 0.28 0.05 92 1006.1
20260509031305 57 298 4.0 13.0 0.02 0.28 0.05 93 1006.0
20260509030805 56 324 2.0 12.0 0.02 0.28 0.05 93 1006.2
20260509030304 56 302 3.0 12.0 0.01 0.28 0.04 92 1006.1
20260509025805 56 337 4.0 12.0 0.01 0.28 0.04 92 1006.0
20260509024805 56 317 2.0 9.0 0.01 0.28 0.04 92 1006.3
20260509024305 56 316 3.0 7.0 0.01 0.28 0.04 92 1006.4
20260509022805 56 314 4.0 12.0 0.02 0.28 0.04 92 1006.1
20260509022306 56 313 2.0 6.0 0.02 0.28 0.04 91 1006.1
20260509021805 56 322 4.0 9.0 0.02 0.28 0.04 91 1006.1
20260509021304 57 308 3.0 9.0 0.01 0.27 0.03 91 1006.3
20260509020805 57 343 4.0 12.0 0.01 0.27 0.03 91 1006.4
20260509015805 57 298 3.0 7.0 0.01 0.27 0.03 91 1006.0
20260509015306 57 315 4.0 12.0 0.01 0.27 0.03 91 1006.2
20260509013304 56 317 3.0 9.0 0.00 0.26 0.02 91 1006.4
20260509012307 56 313 3.0 16.0 0.00 0.26 0.02 91 1006.5
20260509011804 57 331 5.0 10.0 0.00 0.26 0.02 91 1006.4
20260509011304 57 310 2.0 7.0 0.00 0.26 0.02 92 1006.6
20260509010805 57 321 3.0 12.0 0.00 0.26 0.02 92 1006.5
20260509010305 57 290 4.0 10.0 0.00 0.26 0.02 91 1006.5
20260509005805 57 323 3.0 12.0 0.00 0.26 0.02 91 1006.6
20260509005306 57 336 4.0 12.0 0.01 0.26 0.02 91 1006.6
20260509004305 56 343 2.0 6.0 0.02 0.26 0.02 91 1006.7
20260509003804 56 318 4.0 12.0 0.02 0.26 0.02 91 1006.5
20260509003304 56 325 3.0 9.0 0.02 0.26 0.02 91 1006.5
20260509000304 57 307 5.0 13.0 0.02 0.26 0.02 89 1006.0
20260508235805 57 288 3.0 12.0 0.02 0.26 0.02 89 1006.1
20260508235306 57 317 3.0 10.0 0.02 0.25 0.02 88 1006.6
20260508234805 57 339 3.0 9.0 0.00 0.24 0.00 88 1006.5
20260508234305 57 344 2.0 10.0 0.00 0.24 0.00 88 1006.3
20260508233804 57 310 3.0 12.0 0.00 0.24 0.00 88 1006.6
20260508232307 58 320 2.0 7.0 0.00 0.24 0.00 89 1006.5
20260508223804 57 316 4.0 12.0 0.00 0.24 0.24 89 1006.1
20260508223305 57 205 5.0 12.0 0.00 0.24 0.24 89 1006.2
20260508222306 57 340 3.0 14.0 0.00 0.24 0.24 90 1006.1
20260508221804 57 323 5.0 10.0 0.00 0.24 0.24 90 1006.3
20260508221305 57 312 3.0 12.0 0.00 0.24 0.24 90 1006.3
20260508215306 57 323 5.0 14.0 0.00 0.24 0.24 91 1005.6
20260508214805 57 310 5.0 14.0 0.00 0.24 0.24 91 1006.0
20260508205306 57 310 6.0 16.0 0.00 0.24 0.24 91 1005.3
20260508204304 57 328 4.0 17.0 0.00 0.24 0.24 91 1005.3
20260508203806 57 311 6.0 20.0 0.00 0.24 0.24 91 1005.1
20260508201304 57 344 5.0 22.0 0.00 0.24 0.24 92 1004.8
20260508200804 57 321 6.0 15.0 0.00 0.24 0.24 92 1005.1
20260508194305 58 328 5.0 13.0 0.00 0.24 0.24 93 1004.8
20260508191304 58 304 3.0 17.0 0.02 0.24 0.24 92 1004.2
20260508190804 58 341 3.0 13.0 0.05 0.24 0.24 92 1004.6
20260508184304 58 292 5.0 12.0 0.09 0.24 0.24 91 1004.9
20260508183804 57 315 3.0 14.0 0.09 0.24 0.24 91 1005.1
20260508183305 57 327 5.0 12.0 0.09 0.24 0.24 90 1004.9
20260508182805 57 316 5.0 14.0 0.09 0.24 0.24 89 1004.8
20260508182306 57 321 4.0 16.0 0.09 0.24 0.24 87 1004.9
20260508181805 57 306 5.0 12.0 0.09 0.24 0.24 85 1004.8
20260508180805 59 323 6.0 13.0 0.05 0.20 0.20 82 1004.7
20260508173304 60 326 6.0 16.0 0.00 0.15 0.15 77 1004.4
20260508172805 60 289 7.0 18.0 0.00 0.15 0.15 77 1004.7
20260508172307 60 306 5.0 17.0 0.00 0.15 0.15 76 1004.3
20260508171304 61 297 7.0 20.0 0.00 0.15 0.15 77 1004.5
20260508170804 61 285 7.0 18.0 0.00 0.15 0.15 74 1004.8
20260508170304 62 296 6.0 18.0 0.00 0.15 0.15 72 1004.9
20260508165804 62 259 6.0 25.0 0.00 0.15 0.15 75 1004.7
20260508165306 61 317 7.0 20.0 0.00 0.15 0.15 78 1004.5
20260508164804 61 300 6.0 18.0 0.00 0.15 0.15 77 1004.5
20260508164304 61 284 6.0 20.0 0.00 0.15 0.15 75 1004.7
20260508161304 61 281 7.0 28.0 0.00 0.15 0.15 74 1004.4
20260508160804 61 300 7.0 21.0 0.00 0.15 0.15 71 1004.5
20260508155804 63 291 6.0 18.0 0.00 0.15 0.15 72 1004.2
20260508155306 63 270 8.0 20.0 0.00 0.15 0.15 68 1004.4
20260508154304 63 261 9.0 18.0 0.00 0.15 0.15 67 1004.6
20260508152804 63 292 7.0 23.0 0.00 0.15 0.15 71 1004.4
20260508151804 63 311 7.0 17.0 0.00 0.15 0.15 73 1004.7
20260508151305 63 279 12.0 21.0 0.00 0.15 0.15 69 1004.7
20260508150804 63 286 8.0 20.0 0.00 0.15 0.15 70 1004.7
20260508150305 62 299 6.0 18.0 0.00 0.15 0.15 71 1004.6
20260508141805 63 314 7.0 21.0 0.00 0.15 0.15 73 1004.5
20260508141305 62 298 7.0 18.0 0.00 0.15 0.15 75 1004.7
20260508135306 62 290 9.0 14.0 0.00 0.15 0.15 71 1004.6
20260508130805 62 318 9.0 23.0 0.00 0.15 0.15 71 1005.1
20260508130306 62 277 6.0 16.0 0.00 0.15 0.15 76 1005.2
20260508125806 60 272 5.0 17.0 0.00 0.15 0.15 79 1005.0
20260508123805 60 321 3.0 12.0 0.00 0.15 0.15 79 1004.7
20260508121805 63 264 6.0 16.0 0.00 0.15 0.15 75 1004.9
20260508121305 61 288 6.0 14.0 0.00 0.15 0.15 78 1004.9
20260508120805 60 284 11.0 18.0 0.00 0.15 0.15 76 1005.1
20260508120305 61 292 5.0 16.0 0.00 0.15 0.15 80 1004.8
20260508115805 60 308 6.0 15.0 0.00 0.15 0.15 79 1005.2
20260508114805 60 301 4.0 9.0 0.00 0.15 0.15 80 1005.0
20260508114305 60 283 6.0 15.0 0.00 0.15 0.15 86 1005.1
20260508113805 59 299 10.0 21.0 0.00 0.15 0.15 86 1005.1
20260508113305 59 289 5.0 12.0 0.00 0.15 0.15 86 1005.1
20260508112806 60 308 6.0 20.0 0.00 0.15 0.15 87 1004.6
20260508112307 59 276 12.0 20.0 0.00 0.15 0.15 89 1005.0
20260508110805 58 271 6.0 17.0 0.00 0.15 0.15 88 1005.1
20260508110306 58 264 9.0 13.0 0.00 0.15 0.15 86 1005.1
20260508105306 59 296 3.0 12.0 0.00 0.15 0.15 87 1005.1
20260508104305 58 285 5.0 16.0 0.01 0.15 0.15 87 1005.1
20260508103805 59 279 3.0 12.0 0.01 0.15 0.15 88 1005.1
20260508103305 58 297 3.0 9.0 0.01 0.15 0.15 88 1005.2
20260508101805 58 292 7.0 17.0 0.01 0.15 0.15 90 1004.9
20260508100805 57 260 9.0 20.0 0.01 0.15 0.15 90 1004.7
20260508100305 57 260 6.0 20.0 0.01 0.15 0.15 90 1004.4
20260508095805 58 292 2.0 8.0 0.01 0.15 0.15 91 1004.5
20260508095307 58 279 2.0 12.0 0.01 0.15 0.15 91 1004.8
20260508094305 57 280 2.0 10.0 0.00 0.14 0.14 93 1005.0
20260508092805 56 301 3.0 6.0 0.00 0.14 0.14 94 1005.0